Location: Newark
(40.9833°N, 0.0333°W)
Time: 01:42:26
(UTC+00:00)

deb Explorer IX - Pass Details

Date: 29 October 2020
Orbit: 537 x 1105 km, 38.8° (Epoch: 02 December)

Event Time Altitude Azimuth Distance (km) Brightness Sun altitude
Rises 08:19:42 0° 274° (W) 3,616 ? 17.9°
Reaches altitude 10° 08:22:14 10° 272° (W) 2,741 ? 18.2°
Maximum altitude 08:28:56 68° 191° (SSW) 1,140 ? 19.2°
Drops below altitude 10° 08:36:12 10° 111° (ESE) 2,955 ? 20.3°
Sets 08:39:01 0° 109° (ESE) 3,914 ? 20.7°
